Regional Weather Roundup
Issued by NWS

Home | Current Version | Previous Version | Text Only | Print | Product List | Glossary Off
Versions: 1 2 3 4 5 6 7 8 9 10 11 12 13 14 15 16 17 18 19 20 21 22 23 24 25 26 27 28 29 30 31 32 33 34 35 36 37 38 39 40 41 42 43 44 45 46 47 48 49 50

000
ASUS43 KMKX 240811
RWRWI

WISCONSIN REGIONAL WEATHER ROUNDUP
NATIONAL WEATHER SERVICE MILWAUKEE/SULLIVAN WI
300 AM CDT WED MAY 24 2017

NOTE: "FAIR" INDICATES FEW OR NO CLOUDS BELOW 12,000 FEET WITH NO
SIGNIFICANT WEATHER AND/OR OBSTRUCTIONS TO VISIBILITY.

WIZ001-002-006>008-014>016-023>028-240900-
NORTHWEST WISCONSIN

CITY           SKY/WX    TMP DP  RH WIND       PRES   REMARKS
SUPERIOR ARPT  NOT AVBL
ASHLAND        CLOUDY    46  44  93 NE3       29.83F
HAYWARD        CLOUDY    46  42  86 N9        29.81F
SIREN          CLOUDY    46  43  91 NE5       29.83S
CUMBERLAND     CLOUDY    45  41  87 NE9       29.80F
RICE LAKE      CLOUDY    46  43  90 N13       29.81S
CHETEK         CLOUDY    46  44  90 N7        29.79S
LADYSMITH      CLOUDY    45  44  94 N6        29.79S
EAU CLAIRE     CLOUDY    48  44  86 N7        29.75S
MENOMONIE      CLOUDY    48  45  87 N7        29.78S
NEW RICHMOND   CLEAR     45  43  93 NE9       29.80S
OSCEOLA        CLEAR     46  46 100 N7        29.83F
$$

WIZ003>005-009-010-017-018-240900-
NORTH CENTRAL WISCONSIN

CITY           SKY/WX    TMP DP  RH WIND       PRES   REMARKS
MANITOWISH WTR CLOUDY    45  45 100 NE3       29.79S
ARBOR VITAE    CLOUDY    46  43  90 NE6       29.77F
WOODRUFF       CLOUDY    46  43  90 NE6       29.77F
RHINELANDER    CLOUDY    47  44  90 VRB6      29.77S
EAGLE RIVER    CLOUDY    46  44  93 NE9       29.77F
LAND O LAKES   CLOUDY    45  43  93 NE7       29.80F
PHILLIPS       CLOUDY    46  44  92 NE8       29.77S
TOMAHAWK       CLOUDY    46  42  88 NE3       29.77S
MEDFORD        CLOUDY    47  44  87 N8        29.74S
MERRILL        DRIZZLE   48  47  97 N8        29.74F
$$

WIZ029-030-035-036-043>047-240900-
CENTRAL WISCONSIN

CITY           SKY/WX    TMP DP  RH WIND       PRES   REMARKS
WAUSAU         LGT RAIN  48  46  93 N3        29.72S
MOSINEE        DRIZZLE   46  46 100 NE7       29.74S
MARSHFIELD     CLOUDY    50  46  86 NE8       29.72S
STEVENS POINT  CLOUDY    47  47 100 NE10      29.72S
WAUPACA        CLOUDY    51  48  90 NE8       29.72S
WAUTOMA        LGT RAIN  50  49  96 NE13      29.70F
WISC RAPIDS    CLOUDY    50  47  89 NE7       29.73S
CAMP DOUGLAS   DRIZZLE   50  48  93 NW3       29.71S FOG
$$

WIZ011>013-019>022-031-037>040-048>050-240900-
NORTHEAST WISCONSIN

CITY           SKY/WX    TMP DP  RH WIND       PRES   REMARKS
ANTIGO         LGT RAIN  46  44  95 N7        29.74S
SHAWANO        DRIZZLE   50  47  90 NE7       29.72F
OCONTO         CLOUDY    47  46  97 N7        29.72S
STURGEON BAY   LGT RAIN  48  46  93 NE8       29.71F
GREEN BAY      LGT RAIN  49  49 100 NE14      29.70F FOG
MANITOWOC      CLOUDY    47  45  93 NE7       29.70F
APPLETON       CLOUDY    46  46 100 NE14      29.68F FOG
CLINTONVILLE   CLOUDY    46  46 100 NE8       29.71F
OSHKOSH        CLOUDY    50  48  93 NE10      29.68F FOG
$$

WIZ032>034-041-042-053>061-240900-
SOUTHWEST WISCONSIN

CITY           SKY/WX    TMP DP  RH WIND       PRES   REMARKS
LA CROSSE      CLOUDY    53  48  83 N3        29.72S
SPARTA         CLOUDY    48  48 100 N5        29.73S
VIROQUA        CLOUDY    48  47  95 MISG      29.70S
BOSCOBEL       CLOUDY    53  50  89 NE3       29.68S
PRAIRIE DU CHI CLOUDY    52  49  90 N6        29.68S FOG
PLATTEVILLE    CLOUDY    53  53 100 NE8       29.66S
$$

WIZ056-057-062-063-064-067-068-240900-
SOUTH CENTRAL WISCONSIN

CITY           SKY/WX    TMP DP  RH WIND       PRES   REMARKS
REEDSBURG      CLOUDY    48  48 100 NE5       29.69S
BARABOO/DELLS  CLOUDY    48  46  93 NE7       29.69S
LONE ROCK      CLOUDY    51  48  89 N7        29.68S
MINERAL POINT  CLOUDY    52  52 100 NE7       29.66F
MADISON        CLOUDY    50  48  93 N8        29.67F
MIDDLETON      CLOUDY    51  51 100 NE9       29.68S
WATERTOWN      CLOUDY    48  48 100 NE5       29.66F FOG
MONROE         CLOUDY    50  50 100 NE7       29.65F
JANESVILLE     CLOUDY    52  52 100 NE8       29.64F FOG
$$

WIZ051-052-058>065-066-070>072-240900-
SOUTHEAST WISCONSIN

CITY           SKY/WX    TMP DP  RH WIND       PRES   REMARKS
MILWAUKEE      RAIN      48  47  96 N6        29.66F FOG
WAUKESHA       LGT RAIN  45  45 100 N5        29.67F
MILWAUKEE/TIMM LGT RAIN  46  45  93 N3        29.68F
RACINE         LGT RAIN  47  46  97 N7        29.66F
KENOSHA        CLOUDY    49  48  97 NE5       29.64F
FOND DU LAC    CLOUDY    50  47  89 E7        29.68F
SHEBOYGAN      CLOUDY    47  47 100 NE9       29.67F FOG
WEST BEND      DRZL/FOG  46  46 100 CALM      29.68S VSB 3/4
JUNEAU         FOG       48  47  97 CALM      29.69S VSB 1/2
$$

LSZ147-162-240900-
LAKE SUPERIOR

STATION/POSITION TIME  TEMP    WIND        PRES    WAVE
                       AIR SEA DIR/SP/G            HT/PER
                 (UTC) (F)     (DEG/KT/KT) (MB)    (FT/S)
W MID LAKE BUOY  0750   41 37   10/ 10/ 12 1010.9F   0
DEVILS ISLAND    0800   45      10/ 14/ 15 1010.9F
SAXON HARBOR     0740   43      CALM  /  2 1010.2F
$$

LMZ867-665-643>646-240900-
LAKE MICHIGAN

STATION/POSITION TIME  TEMP    WIND        PRES    WAVE
                       AIR SEA DIR/SP/G            HT/PER
                 (UTC) (F)     (DEG/KT/KT) (MB)    (FT/S)
CHAMBERS ISLAND  0740   47     360/ 14/ 16 1006.1F
N MID LAKE BUOY  0750   42 39   30/ 14/ 14 1007.1F   1/ 3
NORTHPORT PIER   0740   46     350/  9/ 11 1006.8S
KEWAUNEE LAKESHO 0742   47      20/  9/ 15 1005.4F
SHEBOYGAN LAKESH 0800   45      10/ 14/ 15 1005.2F
PORT WASHINGTON  0730   48     330/  2/  4 1006.1F
ATWATER BUOY     0609   45     360/ 10/ 14 1005.5
MILWAUKEE LAKESH 0750   46     350/  5/  6   N/A
S MID LAKE BUOY  0750   47 45  350/  8/  8 1004.0F   0
KENOSHA   LAKESH 0800   48      10/ 10/ 12 1004.1
$$

TC  - TEMPERATURE IN CELSIUS
VSB - VISIBILITY IN STATUTE MILES
WCI - WIND CHILL INDEX
HX  - HEAT INDEX





USA.gov is the U.S. government's official web portal to all federal, state and local government web resources and services.